When you browse on this site, cookies collect data to enhance your experience and personalize the content and advertising you see.
Visit our Privacy Policy to learn more. By continuing to use the site, you agree to this use of cookies and data.
  • In Österreich
  • Länderverzeichnis
  • Für 7 Tage
  • Wassertemperatur
  • Wetterkarte
  • News
  • Widgets
  • user-avatar
    Anmelden

    Stündliche Wetter Joro

    Heute, 27 Mai, Mittwoch

    Zeit Temperatur Niederschläge Wind Luftdruck Luftfeuchtigkeit
    00:00 +23°C° 0.7 mm 1 m/S 699 mmHg 94%
    01:00 +23°C° 0.1 mm 1 m/S 698 mmHg 93%
    02:00 +23°C° 0.1 mm 1 m/S 698 mmHg 93%
    03:00 +23°C° 0.1 mm 1 m/S 698 mmHg 92%
    04:00 +23°C° 0 mm 1 m/S 698 mmHg 91%
    05:00 +23°C° 0 mm 1 m/S 698 mmHg 90%
    06:00 +21°C° 0 mm 0 m/S 698 mmHg 89%
    07:00 +23°C° 0 mm 0 m/S 699 mmHg 79%
    08:00 +26°C° 0 mm 0 m/S 699 mmHg 70%
    09:00 +28°C° 0 mm 0 m/S 700 mmHg 61%
    10:00 +31°C° 0 mm 1 m/S 700 mmHg 57%
    11:00 +32°C° 0 mm 1 m/S 700 mmHg 52%
    12:00 +33°C° 0 mm 1 m/S 700 mmHg 47%
    13:00 +33°C° 0.1 mm 1 m/S 699 mmHg 49%
    14:00 +33°C° 0.1 mm 1 m/S 699 mmHg 52%
    15:00 +32°C° 0.1 mm 1 m/S 698 mmHg 54%
    16:00 +31°C° 0.7 mm 1 m/S 698 mmHg 64%
    17:00 +29°C° 0.7 mm 1 m/S 698 mmHg 74%
    18:00 +27°C° 0.7 mm 1 m/S 698 mmHg 84%
    19:00 +27°C° 1 mm 1 m/S 698 mmHg 86%
    20:00 +24°C° 1 mm 0 m/S 699 mmHg 88%
    21:00 +23°C° 1 mm 0 m/S 699 mmHg 89%
    22:00 +23°C° 0 mm 0 m/S 699 mmHg 90%
    23:00 +23°C° 0 mm 0 m/S 699 mmHg 91%

    Morgen, 28 Mai, Donnerstag

    Zeit Temperatur Niederschläge Wind Luftdruck Luftfeuchtigkeit
    00:00 +25°C° 0 mm 1 m/S 699 mmHg 91%
    01:00 +24°C° 0.3 mm 1 m/S 699 mmHg 92%
    02:00 +24°C° 0.3 mm 1 m/S 698 mmHg 93%
    03:00 +24°C° 0.3 mm 1 m/S 698 mmHg 93%
    04:00 +24°C° 0 mm 1 m/S 698 mmHg 93%
    05:00 +24°C° 0 mm 1 m/S 698 mmHg 93%
    06:00 +22°C° 0 mm 0 m/S 699 mmHg 93%
    07:00 +24°C° 0 mm 0 m/S 699 mmHg 85%
    08:00 +26°C° 0 mm 0 m/S 700 mmHg 77%
    09:00 +28°C° 0 mm 0 m/S 700 mmHg 69%
    10:00 +31°C° 0.2 mm 1 m/S 700 mmHg 64%
    11:00 +32°C° 0.2 mm 1 m/S 700 mmHg 59%
    12:00 +33°C° 0.2 mm 1 m/S 700 mmHg 54%
    13:00 +32°C° 0.8 mm 1 m/S 699 mmHg 58%
    14:00 +32°C° 0.8 mm 1 m/S 698 mmHg 62%
    15:00 +31°C° 0.8 mm 1 m/S 698 mmHg 66%
    16:00 +29°C° 1.3 mm 1 m/S 698 mmHg 73%
    17:00 +28°C° 1.3 mm 1 m/S 698 mmHg 80%
    18:00 +26°C° 1.3 mm 1 m/S 698 mmHg 87%
    19:00 +26°C° 0.4 mm 1 m/S 699 mmHg 88%
    20:00 +25°C° 0.4 mm 1 m/S 699 mmHg 89%
    21:00 +25°C° 0.4 mm 1 m/S 700 mmHg 90%
    22:00 +24°C° 0.1 mm 1 m/S 699 mmHg 91%
    23:00 +24°C° 0.1 mm 1 m/S 699 mmHg 91%

    übermorgen, 29 Mai, Freitag

    Zeit Temperatur Niederschläge Wind Luftdruck Luftfeuchtigkeit
    00:00 +24°C° 0.1 mm 1 m/S 699 mmHg 92%
    01:00 +23°C° 0 mm 1 m/S 699 mmHg 92%
    02:00 +23°C° 0 mm 1 m/S 698 mmHg 93%
    03:00 +23°C° 0 mm 1 m/S 698 mmHg 93%
    04:00 +21°C° 0 mm 0 m/S 698 mmHg 93%
    05:00 +21°C° 0 mm 0 m/S 698 mmHg 92%
    06:00 +21°C° 0 mm 0 m/S 699 mmHg 92%
    07:00 +22°C° 0 mm 0 m/S 699 mmHg 88%
    08:00 +25°C° 0 mm 1 m/S 699 mmHg 84%
    09:00 +26°C° 0 mm 1 m/S 700 mmHg 80%
    10:00 +27°C° 0 mm 1 m/S 699 mmHg 74%
    11:00 +28°C° 0 mm 1 m/S 699 mmHg 68%
    12:00 +30°C° 0 mm 1 m/S 699 mmHg 61%
    13:00 +30°C° 0 mm 1 m/S 699 mmHg 61%
    14:00 +30°C° 0 mm 1 m/S 698 mmHg 60%
    15:00 +30°C° 0 mm 2 m/S 697 mmHg 59%
    16:00 +28°C° 0.4 mm 1 m/S 698 mmHg 68%
    17:00 +27°C° 0.4 mm 1 m/S 698 mmHg 78%
    18:00 +25°C° 0.4 mm 1 m/S 698 mmHg 87%
    19:00 +25°C° 0.3 mm 1 m/S 698 mmHg 89%
    20:00 +24°C° 0.3 mm 1 m/S 698 mmHg 91%
    21:00 +24°C° 0.3 mm 1 m/S 699 mmHg 93%
    22:00 +21°C° 0 mm 0 m/S 699 mmHg 93%
    23:00 +21°C° 0 mm 0 m/S 699 mmHg 94%

    30 Mai, Samstag

    Zeit Temperatur Niederschläge Wind Luftdruck Luftfeuchtigkeit
    00:00 +21°C° 0 mm 0 m/S 699 mmHg 94%
    01:00 +21°C° 0.1 mm 0 m/S 698 mmHg 93%
    02:00 +21°C° 0.1 mm 0 m/S 698 mmHg 93%
    03:00 +21°C° 0.1 mm 0 m/S 698 mmHg 92%
    04:00 +21°C° 0.1 mm 0 m/S 698 mmHg 92%
    05:00 +23°C° 0.1 mm 1 m/S 698 mmHg 92%
    06:00 +23°C° 0.1 mm 1 m/S 698 mmHg 92%
    07:00 +24°C° 0 mm 1 m/S 698 mmHg 90%
    08:00 +24°C° 0 mm 1 m/S 699 mmHg 88%
    09:00 +25°C° 0 mm 1 m/S 699 mmHg 86%
    10:00 +25°C° 0.1 mm 1 m/S 699 mmHg 85%
    11:00 +25°C° 0.1 mm 1 m/S 698 mmHg 85%
    12:00 +25°C° 0.1 mm 1 m/S 698 mmHg 84%
    13:00 +25°C° 0.1 mm 1 m/S 698 mmHg 84%
    14:00 +25°C° 0.1 mm 1 m/S 698 mmHg 84%
    15:00 +25°C° 0.1 mm 1 m/S 697 mmHg 84%
    16:00 +22°C° 0.2 mm 0 m/S 697 mmHg 87%
    17:00 +22°C° 0.2 mm 0 m/S 697 mmHg 90%
    18:00 +21°C° 0.2 mm 0 m/S 697 mmHg 93%
    19:00 +21°C° 0.1 mm 0 m/S 698 mmHg 93%
    20:00 +23°C° 0.1 mm 1 m/S 698 mmHg 94%
    21:00 +23°C° 0.1 mm 1 m/S 698 mmHg 94%
    22:00 +22°C° 0.2 mm 1 m/S 698 mmHg 94%
    23:00 +22°C° 0.2 mm 1 m/S 698 mmHg 95%

    31 Mai, Sonntag

    Zeit Temperatur Niederschläge Wind Luftdruck Luftfeuchtigkeit
    00:00 +22°C° 0.2 mm 1 m/S 698 mmHg 95%
    01:00 +22°C° 0.6 mm 1 m/S 697 mmHg 96%
    02:00 +22°C° 0.6 mm 1 m/S 697 mmHg 96%
    03:00 +22°C° 0.6 mm 1 m/S 696 mmHg 96%
    04:00 +22°C° 1.8 mm 1 m/S 696 mmHg 97%
    05:00 +22°C° 1.8 mm 1 m/S 697 mmHg 98%
    06:00 +22°C° 1.8 mm 1 m/S 697 mmHg 98%
    07:00 +22°C° 0.8 mm 1 m/S 697 mmHg 97%
    08:00 +23°C° 0.8 mm 1 m/S 698 mmHg 96%
    09:00 +23°C° 0.8 mm 2 m/S 698 mmHg 95%
    10:00 +24°C° 1.4 mm 2 m/S 698 mmHg 94%
    11:00 +24°C° 1.4 mm 2 m/S 698 mmHg 94%
    12:00 +24°C° 1.4 mm 2 m/S 697 mmHg 94%
    13:00 +24°C° 0.4 mm 2 m/S 697 mmHg 92%
    14:00 +25°C° 0.4 mm 2 m/S 697 mmHg 91%
    15:00 +25°C° 0.4 mm 2 m/S 696 mmHg 90%
    16:00 +25°C° 0.5 mm 1 m/S 697 mmHg 91%
    17:00 +24°C° 0.5 mm 1 m/S 697 mmHg 93%
    18:00 +23°C° 0.5 mm 1 m/S 697 mmHg 94%
    19:00 +23°C° 0.1 mm 1 m/S 697 mmHg 94%
    20:00 +23°C° 0.1 mm 1 m/S 697 mmHg 95%
    21:00 +23°C° 0.1 mm 1 m/S 698 mmHg 95%
    22:00 +21°C° 1.8 mm 0 m/S 698 mmHg 96%
    23:00 +21°C° 1.8 mm 0 m/S 698 mmHg 97%

    1 Juni, Montag

    Zeit Temperatur Niederschläge Wind Luftdruck Luftfeuchtigkeit
    00:00 +21°C° 1.8 mm 0 m/S 698 mmHg 98%
    01:00 +23°C° 0.8 mm 1 m/S 698 mmHg 98%
    02:00 +23°C° 0.8 mm 1 m/S 697 mmHg 97%
    03:00 +23°C° 0.8 mm 1 m/S 697 mmHg 97%
    04:00 +23°C° 0.5 mm 1 m/S 697 mmHg 97%
    05:00 +23°C° 0.5 mm 1 m/S 697 mmHg 96%
    06:00 +20°C° 0.5 mm 0 m/S 698 mmHg 96%
    07:00 +24°C° 0 mm 1 m/S 698 mmHg 92%
    08:00 +25°C° 0 mm 1 m/S 699 mmHg 88%
    09:00 +26°C° 0 mm 1 m/S 699 mmHg 84%
    10:00 +26°C° 2.1 mm 1 m/S 699 mmHg 87%
    11:00 +25°C° 2.1 mm 1 m/S 698 mmHg 91%
    12:00 +25°C° 2.1 mm 1 m/S 698 mmHg 94%
    13:00 +25°C° 3.1 mm 1 m/S 698 mmHg 95%
    14:00 +22°C° 3.1 mm 0 m/S 697 mmHg 95%
    15:00 +22°C° 3.1 mm 0 m/S 697 mmHg 96%
    16:00 +22°C° 1.4 mm 0 m/S 697 mmHg 97%
    17:00 +24°C° 1.4 mm 1 m/S 697 mmHg 97%
    18:00 +23°C° 1.4 mm 1 m/S 697 mmHg 98%
    19:00 +23°C° 1 mm 1 m/S 698 mmHg 98%
    20:00 +21°C° 1 mm 0 m/S 698 mmHg 97%
    21:00 +21°C° 1 mm 0 m/S 698 mmHg 97%
    22:00 +21°C° 0.4 mm 0 m/S 698 mmHg 97%
    23:00 +21°C° 0.4 mm 0 m/S 698 mmHg 97%
    Mehr zeigen